Temp
10 13 15 14 12 12 12 12 13 15 15 12 13 14 16 17 16 16 16 15 15 15 15 14 14 13 13 14 15 16 17 15 13 14 17 17 16 17 14 14 17 17 19 18
12 13 12 11 11 11 12 12 13 14 14 13 13 14 16 17 18 17 16 15 15 15 14 14 13 13 13 13 14 15 16 16 14 14 16 19 19 18 17 17 18 19 19 18
11 13 10 10 11 11 12 12 12 12 13 14 13 15 18 18 18 14 10 10 11 12 13 13 13 13 12 12 12 13 16 17 15 14 14 16 16 15 14 14 14 14 16 18
10 10 10 10 11 11 11 12 11 11 11 12 13 11 16 17 13 9 8 6 4 5 8 10 11 12 12 12 12 13 15 16 16 14 14 15 17 16 16 16 14 14 13 14
11 10 9 8 10 10 11 11 11 11 11 10 13 12 16 12 6 6 6 3 1 1 3 8 12 12 12 12 12 13 15 16 16 15 14 14 16 17 16 15 14 13 14 13
10 10 10 11 11 11 11 10 12 11 10 9 13 12 15 7 4 3 2 2 -0 0 1 2 3 7 9 9 11 12 13 16 16 14 14 14 15 15 15 14 14 13 14 16
11 10 10 9 10 12 11 11 13 12 12 13 14 13 7 7 5 3 2 0 -1 -1 -1 -0 0 1 2 4 7 8 11 13 14 14 14 14 14 14 14 14 14 15 15 15
10 10 11 10 10 10 10 10 11 9 12 12 14 13 9 8 6 3 0 -0 -1 -2 -2 -2 -1 -1 -0 1 2 4 7 11 12 13 13 14 14 16 15 13 16 16 15 14
9 10 10 10 11 11 7 10 10 8 11 10 14 12 10 8 6 3 -0 -1 -2 -3 -3 -3 -3 -2 -1 -1 -0 1 3 6 9 10 11 11 12 13 13 13 13 12 12 13
8 8 10 10 10 11 10 11 10 9 9 10 14 8 6 4 3 2 -0 -1 -2 -3 -3 -4 -4 -3 -3 -2 -2 -1 1 4 5 7 9 8 10 11 12 12 12 12 12 13
8 8 10 10 10 10 11 10 9 9 10 10 11 6 2 2 1 1 -0 -2 -3 -3 -4 -4 -4 -4 -4 -3 -3 -2 0 4 5 2 5 9 10 10 10 10 11 11 12 13
8 8 8 10 11 11 10 8 8 8 10 10 9 5 2 1 0 -1 -1 -2 -3 -4 -4 -5 -5 -5 -4 -5 -4 -1 -0 3 5 4 7 7 7 8 10 10 11 11 12 12
8 8 8 9 9 10 8 8 7 7 7 7 8 6 2 0 -0 -1 -2 -3 -3 -4 -4 -4 -5 -5 -3 -3 -3 -2 -0 2 4 5 5 7 7 7 8 9 10 10 11 11
6 8 7 7 6 6 7 7 7 7 7 6 5 4 2 1 -0 -1 -2 -3 -3 -4 -5 -5 -5 -5 -3 -2 -3 -2 -0 1 2 4 4 5 8 10 11 12 12 11 10 11
8 7 8 8 9 6 4 6 5 4 6 7 3 3 1 0 -1 -2 -3 -4 -4 -4 -5 -5 -5 -6 -4 -3 -2 -2 -1 -1 -2 -0 3 3 6 7 6 8 9 8 8 9
7 8 8 8 9 6 5 6 7 5 3 5 4 4 1 -0 -0 -0 -1 -4 -4 -5 -5 -5 -6 -6 -6 -6 -3 -3 0 -2 -2 2 4 2 5 6 5 7 7 6 6 7
7 7 8 9 9 5 5 3 4 3 3 3 3 2 1 2 0 -2 -2 -3 -4 -5 -6 -6 -6 -7 -7 -7 -6 -4 -2 -3 -2 -1 -2 0 3 5 6 6 5 3 3 2
7 6 7 8 9 7 2 3 2 2 2 1 2 1 2 -0 -1 -2 -4 -4 -5 -6 -6 -7 -7 -7 -8 -7 -6 -6 -7 -6 -5 -6 -4 -1 -1 -0 2 2 1 0 -1 -0
7 6 7 8 8 4 4 4 3 3 2 2 1 2 2 1 0 -0 -4 -5 -6 -6 -7 -7 -8 -6 -4 -4 -6 -6 -5 -5 -4 -3 -4 -2 -2 -3 -1 -2 -3 -3 -2 -1
6 6 7 7 7 7 5 4 2 2 3 1 1 1 1 2 3 1 -5 -5 -6 -7 -8 -8 -8 -8 -6 -6 -5 -4 -4 -5 -5 -4 -3 -2 -2 -2 -2 -3 -3 -3 -4 -4
6 6 6 6 7 4 3 3 1 3 2 -0 -0 -1 -1 -0 -2 -4 -5 -6 -7 -7 -8 -8 -8 -8 -7 -6 -6 -5 -5 -5 -5 -4 -4 -3 -3 -3 -3 -3 -3 -2 -2 -5
6 6 6 6 6 5 2 4 4 -1 -1 -1 -1 -2 -2 -3 -4 -5 -6 -6 -7 -9 -9 -9 -9 -9 -9 -7 -6 -5 -5 -6 -5 -5 -4 -4 -3 -3 -3 -3 -3 -4 -4 -4
4 6 6 5 3 1 1 -1 -2 -2 -2 -3 -3 -3 -3 -3 -4 -5 -6 -7 -8 -10 -10 -9 -10 -9 -9 -9 -8 -8 -7 -6 -5 -5 -5 -5 -4 -4 -4 -4 -4 -6 -5 -4
3 3 3 3 1 1 -0 -1 -2 -2 -3 -4 -4 -4 -4 -4 -5 -6 -7 -7 -8 -10 -10 -10 -10 -10 -9 -9 -9 -8 -7 -7 -6 -6 -5 -5 -4 -4 -4 -4 -5 -6 -5 -6
5 4 2 1 0 -1 -1 -2 -2 -4 -4 -5 -6 -6 -5 -5 -6 -7 -7 -8 -9 -9 -10 -10 -11 -11 -11 -11 -10 -10 -9 -8 -7 -8 -7 -6 -7 -6 -5 -6 -6 -6 -7 -7
4 2 2 2 0 0 -2 -3 -3 -4 -4 -5 -5 -6 -7 -7 -8 -8 -8 -9 -9 -10 -10 -10 -11 -11 -11 -11 -10 -9 -10 -9 -7 -8 -8 -8 -8 -7 -8 -7 -7 -8 -7 -7
Height
1509 1502 1492 1496 1503 1503 1501 1496 1486 1484 1484 1487 1479 1466 1449 1448 1454 1449 1447 1443 1439 1434 1431 1432 1428 1430 1430 1429 1432 1434 1434 1435 1444 1442 1444 1453 1459 1466 1472 1475 1478 1483 1487 1491
1505 1496 1502 1505 1506 1506 1500 1493 1485 1481 1485 1485 1475 1459 1444 1441 1439 1442 1442 1437 1430 1424 1422 1421 1420 1418 1418 1418 1419 1423 1424 1427 1430 1437 1434 1443 1452 1459 1464 1469 1472 1477 1481 1486
1502 1499 1507 1506 1501 1501 1494 1493 1489 1483 1485 1478 1473 1448 1428 1434 1430 1442 1452 1444 1434 1426 1417 1412 1410 1407 1407 1408 1407 1410 1413 1415 1418 1428 1433 1437 1446 1455 1459 1464 1468 1471 1474 1479
1504 1504 1505 1503 1500 1499 1494 1490 1491 1485 1480 1477 1475 1466 1435 1426 1442 1454 1446 1446 1434 1424 1418 1408 1399 1393 1394 1393 1397 1399 1402 1404 1410 1417 1424 1423 1429 1438 1446 1453 1462 1467 1469 1473
1501 1504 1505 1507 1501 1500 1491 1491 1490 1485 1478 1480 1463 1467 1428 1441 1453 1446 1444 1438 1436 1427 1419 1401 1380 1379 1382 1384 1387 1389 1392 1396 1402 1409 1414 1417 1423 1430 1442 1448 1456 1458 1461 1467
1500 1504 1504 1499 1500 1497 1494 1490 1477 1479 1482 1481 1452 1458 1429 1463 1469 1463 1456 1449 1440 1428 1425 1410 1393 1386 1382 1379 1382 1382 1383 1388 1394 1399 1405 1411 1417 1426 1434 1439 1445 1451 1455 1459
1494 1496 1500 1502 1497 1490 1491 1482 1465 1464 1463 1451 1445 1447 1475 1471 1474 1471 1462 1455 1446 1440 1433 1418 1404 1398 1392 1377 1380 1375 1374 1378 1383 1392 1397 1404 1413 1417 1426 1432 1436 1443 1448 1451
1493 1495 1496 1500 1500 1494 1489 1489 1481 1481 1458 1454 1442 1440 1465 1475 1476 1474 1467 1459 1452 1446 1436 1425 1413 1405 1395 1383 1380 1377 1377 1378 1381 1387 1392 1399 1408 1408 1414 1426 1430 1438 1444 1451
1497 1494 1498 1498 1496 1492 1496 1486 1487 1488 1466 1467 1436 1447 1462 1474 1474 1474 1471 1461 1456 1449 1439 1427 1416 1407 1398 1391 1384 1383 1383 1380 1381 1386 1390 1395 1402 1401 1410 1421 1425 1433 1439 1443
1503 1499 1496 1495 1493 1491 1489 1487 1481 1482 1475 1462 1433 1466 1481 1483 1483 1478 1474 1467 1460 1450 1442 1431 1420 1412 1404 1396 1393 1391 1385 1383 1383 1384 1393 1393 1395 1401 1412 1420 1425 1429 1434 1437
1504 1503 1492 1493 1490 1488 1484 1483 1487 1483 1474 1459 1447 1479 1502 1497 1493 1486 1481 1475 1465 1455 1448 1437 1425 1411 1407 1403 1400 1398 1394 1392 1393 1403 1400 1385 1400 1407 1414 1417 1424 1429 1432 1434
1503 1500 1493 1488 1489 1491 1492 1494 1489 1483 1466 1463 1460 1485 1503 1500 1497 1492 1486 1477 1468 1461 1449 1443 1432 1420 1411 1411 1407 1397 1395 1398 1400 1403 1401 1405 1409 1411 1412 1416 1421 1426 1428 1432
1500 1496 1492 1488 1493 1489 1493 1494 1491 1486 1484 1474 1467 1482 1502 1502 1499 1496 1489 1482 1472 1462 1453 1441 1433 1424 1417 1413 1411 1407 1407 1405 1404 1404 1406 1413 1412 1414 1414 1413 1415 1418 1423 1426
1500 1494 1500 1494 1500 1501 1496 1493 1490 1482 1476 1478 1490 1496 1500 1502 1500 1497 1492 1484 1476 1467 1458 1449 1443 1435 1428 1422 1416 1413 1412 1409 1408 1408 1411 1417 1411 1407 1409 1410 1412 1418 1421 1423
1496 1492 1494 1493 1489 1500 1504 1495 1495 1494 1486 1476 1498 1499 1504 1505 1503 1500 1496 1488 1480 1472 1466 1459 1453 1446 1439 1432 1431 1426 1423 1420 1423 1423 1417 1417 1414 1414 1413 1413 1412 1415 1415 1415
1497 1492 1494 1487 1485 1496 1502 1495 1492 1496 1498 1493 1495 1496 1506 1507 1505 1501 1497 1492 1486 1480 1476 1471 1464 1459 1451 1446 1439 1435 1428 1432 1431 1421 1418 1425 1417 1417 1416 1413 1410 1411 1411 1408
1496 1494 1490 1477 1480 1497 1495 1508 1504 1506 1507 1505 1499 1508 1507 1504 1504 1503 1500 1497 1491 1484 1479 1475 1470 1465 1460 1453 1448 1437 1433 1438 1435 1426 1436 1424 1415 1414 1407 1405 1407 1408 1405 1404
1493 1497 1494 1479 1477 1482 1508 1509 1510 1510 1511 1511 1509 1509 1505 1505 1505 1503 1502 1499 1492 1488 1482 1476 1472 1469 1465 1460 1455 1453 1453 1449 1442 1441 1433 1425 1421 1417 1413 1411 1410 1409 1405 1397
1495 1495 1487 1480 1472 1498 1503 1504 1508 1505 1509 1511 1510 1507 1503 1503 1501 1501 1504 1502 1498 1493 1487 1481 1474 1467 1463 1460 1458 1455 1449 1444 1441 1436 1432 1426 1423 1420 1415 1414 1412 1403 1396 1392
1494 1496 1490 1481 1475 1474 1496 1504 1507 1507 1498 1512 1511 1509 1505 1500 1492 1501 1505 1503 1499 1495 1489 1483 1479 1473 1467 1462 1458 1451 1449 1448 1444 1439 1432 1425 1424 1421 1416 1412 1407 1401 1396 1392
1489 1490 1486 1484 1476 1493 1503 1503 1505 1497 1509 1512 1511 1509 1507 1505 1508 1507 1504 1501 1497 1493 1490 1486 1482 1475 1469 1465 1460 1456 1452 1447 1443 1439 1436 1433 1429 1424 1419 1416 1414 1404 1398 1395
1485 1482 1485 1488 1482 1487 1504 1501 1496 1511 1511 1512 1511 1510 1509 1509 1507 1505 1503 1499 1496 1491 1487 1484 1481 1478 1475 1469 1463 1458 1453 1453 1447 1444 1439 1436 1430 1427 1424 1420 1412 1406 1401 1395
1490 1488 1485 1492 1496 1506 1507 1509 1510 1511 1511 1511 1511 1511 1510 1509 1508 1506 1503 1499 1495 1491 1488 1485 1482 1478 1473 1469 1466 1463 1459 1455 1451 1448 1443 1439 1435 1430 1425 1418 1412 1407 1403 1396
1493 1496 1494 1497 1506 1507 1509 1510 1511 1511 1511 1511 1511 1511 1510 1509 1508 1506 1503 1499 1496 1492 1489 1485 1481 1477 1473 1469 1465 1462 1458 1454 1451 1446 1443 1439 1434 1430 1425 1421 1414 1411 1406 1400
1487 1494 1497 1501 1506 1508 1509 1510 1511 1512 1512 1512 1512 1512 1512 1510 1508 1506 1504 1502 1499 1496 1492 1489 1486 1482 1478 1475 1472 1467 1463 1458 1453 1450 1448 1442 1438 1434 1430 1425 1419 1416 1412 1407
1489 1492 1494 1492 1500 1503 1507 1510 1511 1512 1513 1513 1513 1512 1511 1510 1509 1507 1506 1503 1501 1499 1497 1495 1491 1487 1482 1477 1474 1470 1465 1462 1458 1453 1448 1445 1442 1437 1433 1428 1426 1424 1420 1415
Wind_Speed
1 6 6 7 5 8 9 13 18 14 16 14 12 27 34 34 27 29 32 32 35 38 35 35 44 39 37 39 37 35 34 38 38 42 51 50 46 44 35 34 38 37 40 41
5 5 5 3 4 7 11 14 18 13 2 18 17 29 31 23 15 16 22 32 37 38 39 36 35 43 39 40 38 38 37 40 40 41 52 54 52 45 42 40 37 38 38 39
6 4 4 4 7 9 13 13 16 21 18 20 11 18 10 17 16 35 34 36 38 41 44 39 38 37 41 40 41 38 39 41 41 41 41 49 44 30 28 30 33 33 35 38
5 1 3 7 10 7 12 5 10 18 17 7 12 9 14 17 23 26 34 33 38 40 40 43 45 43 40 42 39 37 38 41 42 40 42 48 54 42 38 40 29 29 33 31
3 3 4 5 2 3 6 9 15 18 18 16 7 7 9 21 26 30 30 42 38 37 37 37 29 30 36 35 36 33 37 38 41 40 41 44 49 47 33 27 27 32 34 31
9 6 5 3 6 8 12 15 17 3 3 5 5 4 8 14 18 25 29 38 44 41 35 29 26 16 6 8 20 25 27 33 40 42 40 39 41 31 29 30 32 29 29 30
2 5 3 4 9 4 4 10 4 4 5 6 2 10 11 21 21 17 20 29 38 42 35 29 27 23 18 15 8 9 23 31 32 38 40 36 31 32 33 30 31 29 24 26
2 5 4 2 5 6 7 4 4 6 8 15 16 3 6 21 26 27 29 30 34 40 37 33 29 26 26 24 22 18 16 25 33 33 35 34 38 38 31 29 25 24 21 22
2 2 3 7 5 5 2 3 3 6 15 7 4 9 11 25 23 28 28 32 33 37 39 38 34 32 30 28 26 23 22 25 27 26 24 23 26 25 22 20 22 24 27 29
1 4 3 3 3 3 6 7 3 3 5 8 8 7 11 23 22 22 21 28 31 37 39 39 36 33 31 30 26 25 26 25 24 21 18 18 17 15 17 20 21 25 27 27
2 3 3 3 1 5 3 3 4 5 6 5 7 5 7 14 15 18 22 27 29 34 35 37 35 35 35 31 28 27 28 26 24 16 15 19 16 16 15 14 13 16 20 24
3 2 3 4 3 1 6 7 7 4 2 9 8 5 12 11 15 19 22 25 29 31 34 37 37 34 34 33 31 34 32 30 26 21 18 14 11 10 11 9 8 10 13 18
4 2 3 6 6 9 3 10 8 7 6 3 4 4 8 12 15 21 22 23 26 29 37 42 44 44 42 40 39 36 32 29 25 24 23 17 15 11 6 2 3 7 14 18
2 1 3 6 4 3 6 10 9 5 4 4 4 3 10 12 14 19 23 24 26 29 34 38 41 41 41 39 38 37 32 29 26 22 20 17 15 15 12 8 8 11 15 20
0 2 4 10 11 4 2 7 12 12 13 7 4 4 8 11 12 14 18 23 27 31 33 34 35 35 37 37 35 33 29 29 25 20 22 20 16 15 14 13 13 14 17 20
3 1 6 7 6 11 7 8 12 9 11 11 4 6 3 7 12 19 22 23 25 27 27 27 28 28 30 31 29 28 30 24 24 24 21 20 17 12 15 14 15 18 18 19
3 2 5 3 2 10 4 5 6 10 11 6 9 8 12 6 13 18 21 22 23 25 26 25 24 25 26 27 28 30 28 24 23 25 20 23 24 21 21 21 20 20 21 21
2 4 3 3 4 3 5 2 5 10 9 9 6 9 11 1 6 16 20 22 24 24 25 25 23 23 23 24 25 21 17 19 21 19 23 25 25 25 24 23 22 21 21 22
8 3 3 3 1 6 8 3 3 3 5 9 9 10 15 4 10 10 18 18 18 19 20 21 22 25 26 27 24 23 25 25 26 27 26 27 27 25 26 25 24 25 25 25
7 5 5 3 3 3 6 8 3 4 4 9 10 11 12 13 5 8 16 16 17 17 18 19 19 19 23 26 25 25 26 26 28 28 28 28 28 28 28 28 28 26 25 25
4 4 5 2 3 3 4 8 1 5 4 7 9 10 10 7 6 9 13 15 17 17 18 17 17 19 22 24 24 24 24 27 26 26 26 26 26 27 28 27 28 30 26 23
4 2 2 2 4 3 10 2 3 3 2 5 6 8 7 5 7 10 13 15 16 18 19 19 18 19 20 22 23 24 24 23 23 23 24 25 27 27 27 27 28 30 32 31
3 3 1 4 3 4 8 8 5 2 2 4 5 6 6 6 7 9 11 13 15 17 17 18 19 19 20 22 23 22 22 21 21 21 23 23 25 26 28 30 32 30 33 35
3 1 1 5 5 6 6 6 4 4 4 4 5 5 6 7 8 9 10 12 14 16 18 19 20 21 23 24 24 24 23 22 22 23 23 23 25 26 27 29 32 32 35 35
3 8 4 3 8 8 5 5 4 4 5 5 5 5 6 6 8 9 9 11 12 13 15 17 18 19 20 21 22 22 22 22 21 20 21 23 22 24 24 25 28 30 30 31
5 4 4 1 11 4 10 6 3 4 3 3 2 3 6 7 7 8 9 10 11 11 12 13 15 16 18 20 21 22 21 21 21 19 21 21 20 21 22 23 20 21 25 27
Wind_Direction
281 261 258 348 300 306 298 288 288 301 317 315 300 295 292 295 301 296 299 299 297 294 296 279 278 269 259 257 251 243 230 223 219 219 219 216 217 219 211 211 215 218 220 222
229 267 38 330 294 279 282 288 294 310 254 323 304 295 289 293 314 310 321 314 306 303 297 293 277 268 262 254 251 243 234 222 215 219 223 223 223 221 224 222 224 224 225 224
282 352 303 286 287 276 276 283 292 296 313 293 307 291 342 317 341 0 348 333 321 310 298 293 279 268 262 254 249 244 234 222 215 217 210 214 217 210 212 221 220 220 223 226
287 23 321 300 289 281 283 326 295 299 314 313 337 293 313 359 6 348 346 351 348 338 320 303 281 265 261 253 250 243 231 221 217 211 209 206 211 206 214 220 218 216 220 218
78 279 295 286 308 257 286 312 297 290 288 310 214 222 310 6 356 358 356 353 347 348 333 335 325 264 259 251 244 244 230 222 215 214 209 207 210 216 216 213 217 219 224 219
275 271 269 272 304 265 286 293 280 300 299 260 251 248 55 12 358 355 354 355 352 350 345 353 9 3 293 246 246 235 227 220 213 211 204 204 205 202 201 207 213 222 226 224
243 177 185 261 318 253 257 303 291 243 214 276 120 288 57 18 10 354 353 353 358 354 349 360 20 16 20 69 101 153 190 195 192 198 197 197 198 199 205 215 223 228 227 224
327 175 191 136 289 301 313 316 324 298 317 316 305 281 69 21 8 4 1 360 3 357 356 6 17 26 32 55 65 92 123 158 174 183 186 193 197 206 199 211 220 225 220 223
302 205 187 260 307 310 71 254 42 272 263 263 284 60 147 4 9 5 359 8 2 0 359 7 19 27 34 43 56 81 88 109 129 140 150 156 166 175 184 207 211 210 201 210
110 270 158 340 247 209 285 341 254 215 282 312 302 67 356 356 357 358 359 0 360 4 2 9 18 28 36 41 45 51 72 81 95 105 127 127 135 157 185 190 195 202 203 206
196 265 121 251 203 12 324 261 289 281 262 290 310 82 3 357 354 357 356 356 0 6 4 8 15 33 39 46 45 48 66 75 79 71 89 103 130 145 158 164 185 201 212 220
165 234 290 319 259 88 70 354 299 275 288 290 279 93 19 4 358 0 356 356 360 8 13 19 17 29 34 37 39 49 55 64 62 56 63 75 98 122 139 162 191 223 235 242
161 137 334 150 151 214 333 348 322 262 251 307 345 63 7 2 2 2 355 359 3 8 16 23 24 28 35 37 43 44 52 60 63 55 54 56 57 50 54 51 271 275 274 265
188 174 217 276 339 3 288 349 6 339 275 66 54 18 5 8 2 359 357 358 4 11 14 19 19 25 32 34 35 38 42 45 47 48 44 33 33 30 15 345 314 291 277 273
37 293 250 269 265 136 1 14 34 28 3 25 86 35 4 9 358 6 7 3 8 12 13 14 14 18 29 32 32 32 41 40 34 36 41 32 36 24 12 358 340 324 310 297
123 245 281 254 114 157 78 33 53 44 16 41 333 61 354 24 8 14 13 11 9 7 8 12 15 16 21 26 30 26 34 29 26 42 44 22 35 27 11 1 350 336 321 311
172 276 268 197 340 140 130 16 69 80 42 13 29 354 348 353 21 19 10 9 7 4 2 7 11 14 19 22 20 27 28 20 25 30 19 27 28 23 18 9 355 343 336 327
147 249 263 266 212 205 116 114 80 93 64 26 34 8 358 179 73 35 17 9 3 2 360 1 5 11 17 22 26 24 20 20 28 25 22 24 23 21 19 13 2 351 344 341
203 253 257 271 354 117 179 25 289 287 87 33 7 8 1 352 280 38 10 8 7 1 1 1 3 9 15 19 23 27 26 23 23 24 20 22 20 17 16 11 3 2 357 351
155 242 263 235 253 214 85 359 322 214 174 18 8 7 357 353 345 22 360 1 4 8 6 4 2 6 15 18 20 26 26 26 27 24 23 22 19 18 17 14 7 7 6 359
189 203 244 224 253 113 32 347 119 218 57 12 7 7 13 28 14 339 350 0 4 4 6 9 11 10 12 16 19 23 23 25 23 23 23 22 21 20 19 18 15 15 15 7
196 215 209 212 231 193 357 169 296 53 37 11 9 15 27 24 2 353 353 359 1 5 6 9 11 12 11 15 17 19 21 18 20 23 26 26 24 22 19 18 19 19 16 17
180 340 38 340 49 96 55 89 103 101 97 35 27 18 13 13 5 358 357 0 1 6 8 9 8 7 10 13 13 14 14 13 16 18 23 25 26 23 21 19 19 15 15 15
125 101 188 179 146 132 119 95 102 81 95 68 42 23 17 17 12 9 7 8 5 7 6 7 10 11 9 11 8 7 8 8 9 12 16 18 22 23 22 23 22 17 15 15
63 161 149 94 130 137 139 124 114 106 99 96 71 55 33 20 13 13 14 17 16 10 9 7 8 9 9 8 5 3 6 8 9 8 10 13 15 19 22 25 23 23 22 17
190 138 197 157 150 99 143 146 134 145 119 96 86 48 36 31 19 14 16 16 18 14 13 11 9 9 9 11 9 7 8 8 9 10 12 11 13 16 16 18 23 23 25 25